Theta_e
311 314 316 316 315 314 313 313 313 313 313 312 312 313 313 312 311 311 312 311 310 310 311 312 311 311 311 311 310 310 311 311 310 311 311 311 311 312 313 313 314 314 315 315 315 315 314 315 315 316 316 316 315 314 314 314 314 315 314 314 314 314 313 313 313 313 312 312 312 311 310 310 309 308 307 307 306 305 304 304 303 303 303 301 301 300
311 314 316 316 314 313 313 312 312 311 312 312 312 312 312 311 311 311 311 312 310 310 311 312 312 311 311 311 311 310 311 311 311 311 311 312 312 313 313 313 314 314 314 315 316 316 315 315 315 315 315 315 315 315 315 314 314 314 314 314 313 313 313 313 313 313 313 313 313 312 312 311 310 309 309 308 308 307 306 304 303 303 302 302 301 300
313 314 313 312 312 312 312 311 311 312 312 313 313 312 313 312 311 311 312 312 310 311 314 314 312 311 311 312 311 311 311 311 311 312 312 312 313 313 313 314 314 314 314 315 316 316 315 315 315 315 315 315 315 315 314 314 313 313 313 313 313 313 313 313 313 313 312 313 312 312 312 311 310 309 309 308 308 307 306 304 303 303 302 302 301 300
316 317 314 309 309 312 312 311 313 312 311 313 313 313 313 311 312 313 313 314 311 311 315 313 311 310 311 311 311 310 310 310 311 312 312 312 312 313 313 314 313 313 314 315 316 317 316 315 315 315 315 315 314 314 314 314 313 313 313 313 313 313 313 313 313 312 312 311 311 311 310 309 309 308 308 307 307 306 305 304 303 303 302 302 301 300
315 317 312 309 311 312 312 312 313 313 312 313 313 312 312 312 312 312 313 314 312 312 314 312 311 312 313 313 313 312 310 310 310 310 311 312 312 313 312 312 313 314 315 316 316 317 316 315 315 315 315 315 314 314 314 314 314 314 313 313 313 313 313 313 312 311 311 310 310 310 309 307 307 307 306 306 306 306 305 304 304 303 303 302 301 300
312 311 310 312 314 312 312 312 313 315 313 312 313 313 312 312 312 312 312 312 313 316 315 313 314 315 316 315 317 317 315 312 310 309 310 310 312 312 311 312 314 315 316 316 316 317 317 316 315 315 315 314 315 314 314 313 313 313 312 312 312 312 312 312 312 311 310 310 310 310 310 308 307 307 307 307 307 307 307 306 305 304 303 302 301 300
312 311 311 314 316 314 313 312 314 314 312 313 316 317 314 311 312 313 313 312 316 319 315 314 316 316 315 316 318 320 318 315 313 312 310 310 311 312 312 313 314 315 315 316 317 317 318 316 314 315 315 315 315 314 313 313 312 312 312 312 312 312 312 312 311 310 310 310 310 310 310 310 310 309 309 309 308 308 308 307 306 305 303 302 301 300
313 311 312 312 312 314 314 313 315 313 312 314 316 319 318 314 314 314 312 313 317 316 314 315 316 316 315 315 317 318 317 316 314 312 311 310 311 312 313 314 313 315 316 316 317 317 318 317 315 315 315 315 314 314 313 313 312 312 311 312 312 312 312 312 311 310 310 310 310 310 310 310 310 310 310 309 309 308 307 307 306 305 304 303 302 301
312 313 314 314 312 314 314 313 314 312 312 315 315 315 316 315 314 315 315 316 316 315 315 314 315 317 317 314 316 316 315 317 315 314 314 311 311 312 312 313 315 316 317 317 317 317 318 317 315 314 315 315 314 314 314 313 312 311 311 311 311 311 311 311 311 310 310 310 310 310 310 310 309 309 309 308 308 308 307 307 306 305 304 303 302 301
311 312 312 314 315 314 313 313 316 316 313 314 314 315 319 321 319 317 316 316 317 317 316 315 315 317 317 317 318 315 314 318 318 317 315 311 310 311 313 315 316 317 317 317 317 317 317 315 315 314 314 315 314 314 314 313 313 312 311 311 311 312 312 311 311 311 310 310 310 310 309 310 309 309 308 307 307 307 306 306 306 305 304 303 302 301
309 308 308 311 312 311 312 311 310 313 311 310 312 315 321 323 321 320 319 316 316 317 317 317 316 315 317 318 319 318 317 318 318 317 315 312 310 312 315 316 316 317 316 317 317 316 315 314 314 314 314 314 314 314 314 314 314 313 312 312 312 312 312 311 311 311 310 310 310 310 310 309 309 308 308 307 307 306 306 306 306 305 305 304 303 302
308 308 310 312 310 309 312 311 308 308 308 309 314 317 318 320 320 323 322 317 315 317 317 318 316 314 317 317 316 318 317 315 316 316 316 316 312 312 316 317 316 317 315 314 315 315 314 313 313 314 313 313 313 314 314 314 314 314 313 313 312 312 312 311 311 310 310 310 310 310 309 309 309 308 308 308 307 307 306 306 306 305 305 304 304 303
312 312 311 310 309 309 311 314 313 311 310 311 315 315 315 317 318 320 320 317 317 319 316 314 313 313 315 315 315 316 316 315 313 311 312 313 312 311 314 315 314 315 313 313 313 314 314 313 313 313 311 312 313 313 314 314 314 313 313 313 312 312 312 311 311 310 310 310 309 309 309 309 308 308 308 307 307 307 307 306 306 306 306 305 305 304
317 316 311 309 311 311 311 314 315 316 315 313 316 317 316 317 316 316 319 318 317 318 315 311 313 315 315 316 318 316 313 313 311 309 309 309 310 310 312 312 312 313 313 312 313 314 314 313 314 313 311 311 311 312 313 313 313 313 313 312 312 312 311 311 311 310 309 309 309 309 309 308 308 307 307 307 306 306 306 306 306 306 306 306 306 305
316 317 315 314 314 311 310 312 314 320 319 313 315 319 317 318 318 318 320 318 317 319 315 310 314 320 318 317 320 316 311 309 308 309 310 310 310 311 310 311 311 312 312 312 312 313 313 313 313 312 311 311 311 312 313 313 312 313 312 312 312 311 311 311 310 310 310 309 309 309 308 308 308 307 307 307 306 306 306 306 306 306 306 306 306 305
315 318 319 313 310 311 312 311 310 316 319 314 315 319 316 316 318 317 318 318 316 317 315 312 316 321 318 314 316 315 312 309 308 309 310 310 310 309 310 312 312 313 312 312 312 312 312 312 312 312 311 311 312 312 312 312 312 312 312 312 311 311 311 310 310 310 309 309 309 309 308 308 307 307 307 306 306 306 306 306 307 307 307 307 306 305
315 319 319 311 309 312 312 311 309 312 317 315 314 316 315 316 317 315 316 317 315 314 315 315 317 317 314 315 317 317 317 314 312 311 308 306 308 309 312 313 312 313 313 312 312 311 312 312 311 312 311 312 312 312 312 312 311 311 311 311 311 310 310 310 309 309 309 309 309 308 308 308 308 307 307 307 307 307 307 307 307 307 307 307 306 306
316 316 316 313 313 312 307 307 309 309 312 315 315 314 314 315 317 316 316 316 315 315 315 314 316 315 314 318 320 319 318 317 316 315 310 306 307 309 312 313 313 314 314 313 313 312 312 312 311 311 311 311 311 311 311 311 311 310 310 310 310 310 310 310 309 309 309 309 309 309 309 308 308 308 308 308 308 307 307 307 307 307 307 307 307 306
316 315 316 314 314 313 308 310 313 310 309 310 312 313 313 315 316 315 316 316 315 316 316 316 316 314 314 316 317 315 315 316 317 317 314 311 309 308 311 313 314 314 314 314 313 312 313 312 312 312 311 311 311 310 310 310 310 310 310 310 310 310 309 308 308 308 309 309 309 309 309 309 308 308 308 308 308 307 308 308 308 308 308 308 307 306
313 314 316 316 315 313 312 313 315 314 311 308 309 311 312 313 313 314 317 318 316 315 317 317 316 315 315 315 314 314 314 315 317 317 316 314 310 308 310 312 313 313 314 313 313 313 313 313 313 313 312 312 311 311 311 310 310 310 310 309 309 309 309 308 308 308 308 308 309 309 309 309 308 308 308 307 307 307 308 308 308 308 308 307 306 306
314 315 315 315 317 315 314 315 314 315 315 312 312 312 312 313 314 313 314 316 315 315 315 317 316 316 317 316 315 314 314 316 318 316 316 313 309 309 310 311 312 313 313 313 313 313 313 313 313 313 313 313 312 312 312 312 312 310 310 310 310 309 309 309 309 309 309 309 309 310 310 310 310 309 308 307 307 307 307 307 307 307 307 306 306 306
317 318 316 315 317 315 314 316 315 317 318 317 315 314 313 313 314 314 314 315 315 314 315 316 315 317 319 317 315 314 314 317 317 315 314 312 309 310 311 311 312 312 313 314 313 313 313 313 313 312 313 313 312 313 313 313 313 312 311 310 310 310 310 310 311 311 310 310 310 310 311 311 311 310 309 308 307 307 307 308 308 307 306 306 306 306
316 319 317 315 316 315 314 315 315 315 315 315 314 314 314 313 312 314 314 315 315 314 314 315 315 318 320 316 314 314 314 314 313 312 312 310 309 311 312 312 312 312 313 313 313 314 314 313 312 312 312 312 312 312 313 313 313 312 312 311 309 310 310 311 312 312 311 311 311 311 311 310 310 309 309 309 308 308 308 308 308 307 307 306 306 305
315 316 316 316 316 317 316 315 314 313 312 313 313 312 313 312 312 314 313 313 314 314 315 315 315 318 319 317 316 315 313 312 311 311 311 310 309 311 312 312 313 312 312 312 312 312 312 311 310 309 309 310 311 311 312 313 313 313 313 312 311 310 310 310 311 311 311 311 312 312 311 310 310 309 308 308 309 309 309 308 308 307 307 306 305 305
315 316 316 317 317 318 317 316 315 314 314 314 314 313 312 312 312 313 313 313 314 314 314 315 315 317 318 318 316 314 313 312 312 311 311 310 310 311 311 311 311 311 310 310 309 309 309 309 308 308 308 308 308 309 310 312 313 313 313 314 313 313 312 311 311 312 311 311 311 311 311 311 310 309 308 308 309 309 309 309 308 308 307 307 306 305
313 315 316 316 317 317 316 316 316 316 316 315 314 314 313 313 313 313 313 314 314 315 315 315 315 315 316 315 314 313 312 312 312 311 311 311 311 310 309 308 308 307 307 306 306 306 307 307 307 307 307 307 307 307 308 309 311 311 312 313 313 313 313 313 313 313 312 311 310 310 310 311 310 310 309 309 309 309 309 309 309 308 308 307 307 306
311 313 314 315 315 315 314 315 315 316 316 315 315 315 315 314 313 312 313 314 314 315 315 315 315 315 315 315 313 313 312 312 312 311 310 310 308 307 305 303 303 302 302 301 301 302 303 303 304 304 305 306 306 306 306 307 307 308 308 309 310 311 311 311 311 312 312 311 310 309 310 311 311 311 310 310 309 309 307 307 308 308 308 308 307 306
311 312 313 313 313 314 313 313 314 314 314 314 314 314 314 314 314 313 312 313 314 314 314 315 314 314 314 314 313 312 311 310 309 307 305 303 301 300 300 299 298 298 298 298 298 298 299 299 300 301 302 303 304 304 305 305 305 306 306 306 308 308 308 309 309 309 310 310 310 310 310 311 312 312 311 310 308 307 306 306 306 306 307 307 306 306
311 311 312 312 312 312 312 312 312 312 312 312 313 313 313 314 314 313 313 313 314 314 314 313 313 314 313 311 308 306 304 304 302 300 298 297 297 297 297 296 296 296 296 296 296 296 296 297 298 298 299 300 301 302 303 304 304 305 305 307 307 308 308 308 308 308 308 308 309 310 310 311 311 311 311 309 307 307 306 305 305 305 305 305 305 305
309 310 310 310 310 310 311 311 312 312 311 312 312 312 312 312 313 313 313 314 313 313 313 311 312 313 309 302 300 298 297 299 299 297 296 296 296 296 296 295 295 295 295 295 295 295 295 296 296 296 296 297 298 299 300 301 302 303 304 306 307 308 308 308 308 309 308 307 308 308 309 309 309 309 309 308 307 306 305 305 304 304 304 304 304 302
308 309 309 308 308 308 309 310 310 311 312 311 311 312 312 312 313 312 312 313 313 313 312 311 313 311 302 296 297 297 295 296 297 296 295 295 295 295 295 295 295 294 294 294 294 294 294 294 294 294 294 295 295 296 297 298 300 301 302 304 305 306 307 307 308 309 309 308 308 308 308 307 307 307 307 306 306 305 305 304 304 304 303 303 302 301
306 306 306 306 307 307 308 308 309 310 310 309 309 310 310 311 311 312 312 312 311 311 310 310 308 302 296 294 296 295 293 294 295 295 294 294 294 294 294 294 294 294 294 294 294 294 294 294 294 294 294 294 294 294 295 295 297 299 300 302 303 304 305 306 307 308 308 308 308 307 307 307 306 306 306 305 304 304 304 303 303 303 303 302 302 300
304 304 304 305 306 306 306 306 307 307 307 307 306 306 308 309 309 310 309 304 302 304 305 303 299 296 294 294 294 294 293 292 294 295 294 293 293 293 293 294 293 293 293 293 293 293 293 293 293 293 293 293 293 293 294 294 294 296 298 300 301 301 302 304 305 306 307 307 305 305 306 306 305 305 305 304 303 303 302 301 302 302 302 302 301 300
302 303 303 303 304 304 304 304 304 303 303 304 302 300 301 302 301 301 299 295 296 298 298 296 294 294 294 293 293 294 293 291 293 294 294 292 292 292 293 293 292 292 292 292 292 292 292 293 293 293 293 293 293 293 293 293 294 294 296 298 300 300 300 301 302 303 304 303 302 301 302 303 303 303 303 302 302 302 301 300 300 300 300 300 299 298
301 301 301 301 302 302 302 302 301 300 301 301 297 295 297 297 295 295 294 293 294 295 295 294 294 293 293 293 293 293 292 291 292 294 294 293 291 291 292 292 292 291 291 291 291 291 291 292 292 292 292 292 292 292 292 293 293 294 294 296 298 299 300 300 300 301 301 300 300 300 300 300 300 300 300 300 300 300 300 299 298 298 298 298 298 298
300 300 300 300 301 300 301 301 300 300 301 299 296 295 295 295 295 295 295 293 293 293 294 293 293 292 292 293 293 292 292 291 291 293 294 292 290 291 291 292 291 291 291 290 291 291 291 291 292 291 291 291 291 291 292 292 293 293 293 294 296 298 299 299 299 299 300 299 299 299 299 299 299 298 298 298 298 298 298 298 297 297 297 297 296 296
299 300 300 300 301 301 301 301 301 302 303 301 297 295 294 294 294 295 296 294 293 293 293 292 292 292 292 292 292 291 291 291 291 293 293 291 290 291 291 291 291 290 290 290 290 290 290 291 291 290 290 290 290 290 291 291 292 292 293 293 295 297 298 298 299 299 299 299 299 298 298 298 298 297 297 297 297 297 297 297 297 296 296 296 296 296
300 300 300 299 300 301 301 301 301 303 304 299 294 293 294 294 294 294 295 295 293 292 293 292 291 292 292 291 291 291 290 290 290 291 291 290 290 290 290 290 290 289 289 289 289 289 290 290 290 290 290 290 290 290 290 290 291 291 292 293 294 296 297 297 298 298 298 298 298 298 297 297 297 297 297 297 296 296 296 296 296 295 295 295 296 296
298 299 299 297 298 298 298 298 298 301 301 296 292 293 293 292 292 294 295 296 293 291 292 292 290 291 292 291 291 290 290 289 289 290 290 289 289 290 290 289 289 288 289 288 289 289 289 289 289 289 289 289 289 290 290 290 290 291 291 292 293 295 297 296 296 297 298 298 298 297 297 297 296 296 296 296 295 295 295 295 295 295 295 294 295 295
296 297 297 296 296 296 296 296 296 297 299 295 291 292 292 291 292 294 296 297 292 290 292 292 290 291 291 290 290 290 290 290 290 289 289 289 289 289 289 288 288 288 288 288 288 288 288 288 288 288 288 289 289 289 289 290 290 290 290 291 291 293 295 296 296 296 296 297 297 297 297 296 296 295 295 294 294 294 294 293 293 294 294 294 294 293
296 296 296 296 295 295 296 296 294 296 298 294 290 290 290 291 293 294 295 294 290 289 291 291 290 290 290 290 290 290 290 290 289 289 288 288 288 288 288 288 287 287 288 287 287 287 286 287 287 287 287 287 288 289 289 289 290 290 290 290 290 291 293 294 295 296 296 296 296 296 296 296 296 295 295 294 293 293 293 293 292 293 293 293 293 292
295 295 295 296 296 295 295 295 293 294 295 291 289 290 291 292 293 293 292 291 289 290 292 291 290 290 289 289 289 289 289 288 288 288 288 287 288 287 287 287 287 287 287 286 286 286 285 286 286 286 286 286 287 287 288 288 289 289 289 290 290 290 291 292 293 294 295 295 295 295 295 295 295 295 295 294 294 293 292 292 292 292 292 292 292 292
294 293 293 294 294 292 291 291 291 292 292 291 290 291 291 291 291 291 290 289 290 291 292 291 290 290 289 288 288 288 288 287 287 287 287 287 287 287 287 287 286 286 286 285 285 285 285 285 285 285 286 286 286 286 287 287 287 288 289 289 289 290 290 291 291 292 293 294 294 294 294 294 295 295 295 295 294 293 292 292 291 291 291 291 291 291
293 291 290 291 292 291 290 290 291 291 291 290 290 290 290 290 290 289 289 289 290 291 291 291 291 290 289 288 287 287 287 287 286 286 286 286 286 286 286 286 286 285 285 285 285 285 284 284 284 285 285 286 286 286 286 286 286 287 287 288 288 289 289 289 290 291 292 293 293 294 294 294 294 294 295 295 295 294 293 292 291 291 291 291 290 290
292 291 290 291 292 292 291 292 292 291 290 289 290 289 289 290 290 289 289 290 290 290 290 290 290 289 288 287 287 286 286 286 286 285 285 285 286 286 286 285 285 285 285 285 285 284 283 283 284 284 285 285 285 285 286 286 286 286 287 287 287 287 287 288 289 290 291 292 292 293 294 294 294 294 294 295 295 295 293 292 291 291 291 290 290 290
290 289 289 290 291 291 290 290 290 289 289 290 290 290 290 290 289 289 289 290 290 290 290 290 289 288 287 286 286 286 285 285 285 285 285 285 285 285 285 284 285 285 285 285 285 284 283 283 283 284 285 285 285 285 285 285 286 286 286 286 286 286 286 286 288 289 290 291 291 292 293 294 294 294 294 294 295 295 294 292 291 290 290 290 290 289
289 288 288 289 290 289 289 290 289 289 289 289 289 289 289 289 289 288 289 289 289 289 289 289 287 287 286 286 285 285 284 284 284 283 283 283 283 284 283 283 284 284 284 284 284 283 282 281 282 283 284 285 285 285 285 285 285 286 286 286 286 285 285 285 286 287 288 289 290 291 292 293 293 294 294 294 294 295 294 293 291 290 290 290 289 289
289 289 289 289 289 289 289 289 289 289 289 289 289 289 288 289 289 289 289 289 289 289 289 288 287 286 286 285 285 283 283 283 282 281 281 281 281 282 282 282 282 282 283 283 283 282 281 281 281 281 282 284 285 285 284 285 285 285 286 286 286 285 285 286 286 286 287 288 288 289 290 291 292 294 294 294 294 294 294 294 292 291 291 292 292 291
289 289 290 290 289 289 289 289 288 288 288 289 289 289 289 289 289 289 288 288 288 289 288 287 287 286 285 285 284 282 282 282 282 281 279 280 281 281 281 280 279 279 280 281 280 279 279 279 280 280 280 283 284 284 284 284 285 285 285 285 285 285 285 286 286 286 286 287 287 288 289 290 291 293 293 294 294 294 294 294 294 293 292 292 291 291
289 289 289 289 289 289 289 289 289 289 288 288 289 289 289 288 288 288 288 288 288 288 287 286 286 286 285 284 283 282 281 282 282 281 279 279 280 280 280 279 278 279 279 279 277 277 277 277 278 278 279 282 283 282 282 283 284 284 284 284 284 283 284 285 285 285 286 286 286 287 287 288 289 291 292 293 293 293 293 293 293 293 292 291 290 289
289 289 289 289 289 289 289 289 289 288 288 288 289 289 288 288 288 288 288 288 287 287 286 285 285 284 284 283 283 281 280 280 281 279 277 278 279 279 278 277 276 277 278 277 275 275 275 276 276 276 278 281 281 280 281 282 283 284 283 282 282 282 282 283 282 283 285 286 285 285 285 285 286 288 289 290 291 291 292 292 291 292 291 290 289 288
Wind_Speed
9 5 3 6 9 12 13 13 16 16 10 7 4 6 8 8 10 10 11 12 6 6 9 12 18 17 15 14 14 25 28 24 28 30 30 33 36 40 42 47 49 50 55 59 57 56 53 51 48 47 47 46 43 40 38 39 40 41 41 43 44 44 45 46 47 45 44 44 43 43 43 42 40 39 39 39 39 40 41 41 39 37 36 35 34 33
5 6 7 12 14 13 13 13 13 10 6 6 6 7 9 8 13 11 12 15 6 4 9 10 18 20 17 15 13 19 19 16 23 27 29 33 35 39 42 46 49 51 55 56 55 54 52 50 47 46 46 44 42 41 40 39 38 38 39 41 42 44 46 47 47 47 45 44 42 42 40 39 38 37 38 38 39 41 42 42 41 39 37 36 36 35
3 6 10 14 13 9 8 5 5 6 6 7 5 6 8 6 10 11 11 15 6 4 8 8 16 18 15 16 13 14 17 20 29 32 36 38 34 37 42 46 50 51 53 54 54 53 51 48 45 44 44 43 42 40 39 37 35 35 37 38 41 43 45 46 48 47 45 43 42 41 39 37 37 37 37 37 38 40 42 42 41 40 39 38 37 36
5 6 12 17 12 7 7 4 4 5 5 6 6 6 8 4 6 9 7 8 4 4 7 9 15 14 11 16 13 17 25 25 31 38 42 43 40 43 48 47 47 47 51 54 54 53 50 47 44 43 43 42 40 38 38 36 35 35 35 35 38 42 44 46 48 47 45 43 42 42 40 38 37 37 36 37 39 40 41 42 41 41 40 39 38 37
9 6 8 11 9 8 9 8 5 5 6 9 9 7 10 10 11 12 5 5 5 5 7 9 15 11 9 13 9 12 20 20 26 31 34 42 48 49 46 43 45 48 51 54 53 51 49 47 45 43 42 41 40 39 38 36 35 35 34 34 36 40 43 45 46 46 45 44 44 44 43 41 40 39 39 40 41 41 41 41 42 43 42 41 40 38
10 8 5 5 6 8 9 7 6 7 9 10 8 10 16 17 13 13 8 7 6 5 5 3 9 10 4 9 7 6 8 10 15 18 24 39 45 39 35 39 46 48 49 50 49 47 47 47 44 42 42 41 41 40 38 35 34 34 34 35 37 39 41 44 45 45 44 44 45 44 44 44 43 43 43 42 39 38 38 40 42 43 43 42 41 40
5 8 8 7 7 7 6 6 7 10 8 9 6 12 16 14 11 12 8 4 2 5 4 3 2 10 4 5 7 7 7 10 12 12 19 29 32 30 35 42 45 45 45 45 44 41 43 46 43 40 40 38 39 36 32 32 32 33 34 35 37 38 40 42 44 44 44 44 44 44 44 43 42 43 42 38 35 34 35 38 41 42 42 42 42 41
3 4 5 5 4 5 5 7 8 11 7 7 5 9 11 9 9 8 5 5 4 3 4 2 4 8 11 4 8 9 10 12 13 13 14 19 26 34 40 42 40 41 40 40 40 37 39 45 43 40 38 36 35 30 26 28 30 32 33 34 36 38 39 41 42 43 43 43 43 43 42 42 42 41 38 35 34 34 36 38 39 41 42 42 42 42
4 3 6 6 4 5 7 7 6 11 7 5 2 5 6 6 5 4 4 5 2 4 5 4 5 3 12 8 4 5 7 10 13 13 12 15 24 33 35 36 36 36 34 33 36 36 38 44 43 39 36 33 29 24 23 25 26 28 31 34 36 37 39 40 41 42 41 41 41 40 41 41 41 39 38 37 36 36 36 38 39 40 41 42 42 43
2 2 5 8 5 6 8 6 6 12 8 3 4 4 3 3 2 3 3 3 2 5 6 5 5 3 11 9 1 1 3 8 10 9 9 13 22 29 31 32 32 31 31 31 35 39 40 40 38 36 32 27 23 20 20 22 23 25 29 32 34 36 37 39 40 41 40 40 39 40 40 40 39 39 40 40 40 39 38 38 39 40 41 42 42 43
6 1 3 5 7 7 5 2 4 10 7 1 2 2 5 4 4 3 0 2 2 7 6 9 11 6 7 6 3 2 4 6 7 5 7 11 17 27 30 30 31 31 32 32 35 39 39 36 33 31 27 21 19 18 19 20 21 23 26 29 32 34 36 38 39 40 39 38 38 39 39 38 38 39 40 41 41 41 40 39 40 39 40 41 42 43
5 3 2 5 9 6 4 1 1 2 2 1 1 2 4 4 4 5 4 3 2 9 6 10 13 8 7 6 1 4 7 5 6 5 8 10 15 25 29 28 30 31 31 31 32 35 35 31 29 26 21 17 17 17 18 19 20 22 24 27 31 33 36 38 38 39 38 38 38 38 38 37 37 38 39 41 41 41 40 40 39 39 40 40 41 42
3 6 4 1 5 8 6 2 3 4 2 3 2 1 2 4 4 3 3 1 3 9 5 7 8 5 11 9 3 8 13 11 9 8 11 12 16 25 29 30 32 33 34 34 33 34 34 30 28 25 20 16 17 17 17 19 19 21 24 27 30 33 35 36 37 37 37 37 38 38 38 37 38 39 40 40 41 40 39 39 39 39 39 40 41 42
4 4 1 1 3 9 9 4 3 2 3 6 5 4 3 1 3 4 3 2 5 7 3 3 5 4 10 8 5 11 14 12 10 10 14 15 17 23 26 27 29 30 32 32 31 31 31 29 26 25 22 17 18 18 17 18 19 21 23 26 28 31 33 34 35 35 36 37 37 37 36 37 38 40 41 41 41 40 39 39 38 37 38 39 40 41
3 6 3 4 3 7 10 8 8 4 4 6 6 5 5 4 5 5 4 6 8 6 3 1 4 5 6 5 6 9 8 12 13 13 13 11 10 11 13 17 22 26 26 25 23 24 25 24 22 23 21 16 15 16 16 17 18 19 22 25 27 29 31 32 33 34 35 35 36 36 36 37 38 39 40 40 39 39 39 38 37 36 36 37 38 39
4 7 6 3 2 8 8 7 5 5 1 4 4 5 3 5 5 5 6 8 7 4 3 3 4 5 5 6 8 7 8 11 10 8 7 5 3 4 12 19 24 28 28 26 24 21 21 21 19 18 16 13 12 13 14 16 16 17 20 23 25 27 29 30 31 32 33 34 35 35 36 37 39 40 40 40 39 39 39 38 37 36 35 36 37 38
4 6 3 1 1 6 7 4 4 5 2 0 3 3 4 3 6 4 7 6 5 5 5 6 7 6 4 8 9 5 5 6 5 4 4 7 6 8 15 19 21 24 27 27 26 23 21 19 15 12 10 10 10 11 12 13 14 15 17 20 23 25 27 29 30 32 32 33 34 35 36 38 39 40 40 39 39 39 39 39 38 36 36 37 37 38
5 5 4 4 5 6 5 2 3 5 4 3 2 5 2 1 3 3 3 3 5 8 7 8 13 10 6 8 6 5 6 7 5 4 6 8 8 12 16 19 19 21 23 23 23 22 22 20 16 13 11 10 10 11 12 12 13 13 15 18 21 24 25 25 27 29 30 32 34 35 37 38 40 40 40 39 39 40 40 40 39 38 39 39 39 40
2 4 6 7 7 3 1 1 5 6 5 4 3 1 1 2 4 2 2 3 6 9 6 7 12 10 7 9 10 9 10 12 10 6 6 8 9 11 16 21 23 22 21 18 16 15 17 19 18 17 15 13 12 12 12 12 14 15 16 17 19 20 22 23 25 27 29 31 33 35 37 39 41 41 41 41 42 42 42 42 41 41 41 41 41 41
2 3 5 5 4 2 3 0 5 7 4 1 2 2 1 4 5 4 3 2 5 9 8 8 10 7 7 9 12 14 12 11 11 6 7 9 10 12 15 19 21 20 18 16 13 13 14 16 17 17 16 14 13 13 14 14 15 16 18 19 19 19 20 22 25 27 29 30 32 34 37 40 42 43 44 44 45 45 44 44 43 43 43 43 43 43
1 3 5 4 4 2 1 5 7 7 4 2 2 4 4 3 3 4 3 2 4 8 8 9 8 7 5 6 13 16 11 8 9 6 7 11 14 19 19 17 17 17 19 19 16 15 17 20 20 19 17 15 14 16 18 20 21 20 20 20 19 20 20 20 22 25 27 29 31 34 37 40 43 45 46 46 47 47 46 46 46 45 45 46 45 44
1 2 4 4 4 6 9 8 7 8 7 5 5 5 5 5 3 6 7 6 6 7 7 9 9 7 4 6 15 15 7 6 7 6 9 13 18 24 25 24 23 23 26 28 27 26 28 30 28 24 21 18 17 19 23 26 27 25 24 23 22 21 20 19 20 22 24 27 30 34 37 40 43 45 47 48 49 49 49 48 48 48 48 48 47 46
4 3 3 6 7 10 14 11 7 8 5 3 3 4 5 5 4 6 9 7 6 8 8 8 10 6 6 9 16 12 5 7 10 11 12 16 23 27 30 32 32 31 31 32 33 35 37 37 32 26 24 22 20 23 28 30 30 27 25 24 25 25 22 21 22 22 24 27 30 34 38 41 45 47 49 50 51 51 51 50 50 50 50 50 49 48
3 2 3 7 6 6 10 12 9 7 4 3 5 6 7 8 9 10 9 7 7 8 7 8 10 5 4 8 11 11 12 13 15 18 17 17 22 26 27 32 34 34 32 31 30 30 32 32 30 27 25 22 22 25 30 31 30 27 24 25 27 28 26 26 26 27 29 30 31 34 38 42 47 50 52 53 53 53 52 52 52 52 52 52 52 50
2 2 2 5 4 3 5 7 8 7 4 4 7 9 10 11 13 12 9 7 8 9 11 12 10 6 3 6 7 10 15 16 18 25 24 19 21 26 26 26 27 26 24 24 25 25 26 27 29 30 29 27 27 29 32 31 30 28 28 30 33 35 34 34 34 36 37 38 37 37 39 42 47 52 54 54 54 54 53 54 54 54 54 54 53 52
2 2 2 4 5 6 7 6 5 5 3 2 4 9 11 13 15 12 9 9 10 12 14 13 11 9 6 7 10 12 16 17 20 27 30 25 23 23 20 19 21 23 25 26 26 25 24 24 25 27 28 28 28 29 29 31 33 35 36 37 39 41 43 43 44 44 44 46 45 43 42 44 47 50 52 53 55 56 56 56 56 56 56 56 55 54
2 2 5 9 10 10 11 10 8 8 8 9 8 9 10 10 12 11 8 11 12 11 12 12 12 12 9 9 14 16 17 19 20 22 24 23 23 26 30 32 32 32 33 33 34 33 30 29 29 28 27 26 26 26 25 27 31 35 39 41 42 43 45 46 46 46 47 48 49 48 46 48 49 50 50 51 53 56 57 58 58 58 58 57 57 57
2 3 7 13 14 13 14 16 16 15 15 17 16 15 14 13 12 11 11 13 11 10 12 12 12 13 12 12 15 16 14 13 12 14 19 25 29 30 31 33 35 36 37 38 39 39 38 38 35 33 31 29 27 26 26 26 28 31 35 37 38 39 42 44 46 49 51 51 51 52 52 51 50 50 51 51 53 56 58 58 59 59 59 58 59 59
2 4 8 12 13 13 14 16 16 15 16 16 16 17 19 19 18 18 20 21 16 14 15 14 16 18 14 9 9 10 12 12 12 15 21 27 29 29 31 32 33 34 36 37 38 39 40 40 40 38 37 34 32 30 30 30 30 32 33 34 35 36 38 39 43 47 50 52 52 54 55 54 52 51 52 53 54 55 56 56 57 57 58 58 59 60
4 3 6 9 10 10 11 13 13 14 15 16 16 17 19 20 22 24 24 23 21 21 21 20 23 20 9 8 10 13 16 15 15 21 26 28 28 28 29 29 29 30 33 34 36 38 39 39 41 41 41 40 38 37 36 36 35 35 35 35 36 38 39 40 42 44 47 51 51 52 56 57 55 53 54 55 54 54 54 54 55 55 55 56 57 58
3 2 5 7 8 9 11 12 13 12 13 15 15 16 17 19 21 21 20 19 20 22 22 22 22 14 6 10 10 13 20 19 18 21 24 24 26 27 26 27 28 29 31 33 34 37 39 40 42 43 44 43 43 41 41 40 39 38 37 37 37 38 40 43 45 46 48 50 48 47 50 54 55 55 55 55 54 52 52 52 53 53 54 54 55 55
2 3 6 7 8 9 10 13 15 13 13 14 16 17 19 19 18 17 15 14 14 15 14 13 9 5 8 11 11 12 17 18 14 15 19 22 26 28 26 26 28 30 31 33 34 36 39 40 41 43 44 44 44 44 43 43 42 41 41 39 38 37 38 40 43 45 46 45 43 42 44 48 52 53 53 54 53 52 52 52 52 53 54 54 54 54
3 3 4 6 8 9 12 15 14 12 12 13 13 12 13 12 12 11 8 7 9 7 5 2 2 3 6 9 11 12 13 14 12 11 16 22 26 27 28 27 28 30 32 32 34 35 37 38 39 41 42 44 44 44 44 45 44 44 44 42 40 38 38 37 36 37 39 39 40 42 42 43 47 49 50 51 52 52 52 53 54 54 55 54 53 52
6 6 5 6 6 10 15 15 11 10 13 10 3 4 3 2 4 4 4 8 10 7 5 5 4 5 6 7 10 11 10 14 16 10 11 22 28 28 28 28 29 32 33 33 34 35 36 37 38 39 41 42 44 45 45 45 45 44 44 43 41 40 40 39 36 33 33 35 37 39 40 40 43 46 47 49 51 51 52 53 53 53 53 52 51 51
10 9 7 5 5 8 10 9 9 12 10 2 5 5 2 6 11 10 6 6 8 8 8 7 5 6 7 7 9 11 12 18 20 14 10 20 29 29 29 29 31 33 34 34 35 36 36 37 38 40 41 42 43 44 45 45 45 45 44 43 43 41 40 41 40 37 35 34 34 34 35 37 39 42 43 46 48 49 49 50 51 51 50 50 49 48
10 8 5 4 5 6 5 6 10 10 3 4 4 6 3 3 6 5 5 6 6 5 6 5 5 5 6 8 11 14 18 21 19 11 7 18 28 29 27 28 31 33 33 34 34 35 35 35 36 38 40 41 42 43 44 44 43 44 45 43 42 41 40 41 40 39 37 35 33 32 32 32 34 37 39 41 44 45 46 46 48 48 48 47 46 45
9 8 5 5 6 6 7 8 10 9 4 2 1 5 2 1 2 2 0 2 3 2 3 2 2 4 5 8 13 19 22 20 13 5 4 18 28 28 27 28 30 32 34 34 34 34 34 34 35 36 38 40 42 42 43 44 43 43 43 43 41 39 39 40 41 41 39 36 33 31 30 29 30 32 34 37 40 42 43 44 44 45 45 45 44 44
6 6 4 5 5 4 6 6 5 7 5 2 2 5 5 7 7 4 4 2 3 2 2 2 1 4 3 6 12 16 17 15 8 5 11 24 30 29 29 30 30 32 34 35 35 35 35 35 36 36 37 39 42 42 43 44 44 43 42 41 39 38 37 38 40 40 39 37 35 31 29 28 27 28 30 33 36 38 40 41 41 42 43 43 43 42
0 2 2 4 4 4 6 6 5 6 3 3 4 6 8 14 10 4 4 3 4 3 5 5 2 4 3 5 8 9 10 9 7 12 23 31 33 31 31 31 32 33 34 34 34 35 36 38 38 38 38 40 42 43 44 45 45 43 42 41 38 36 35 36 38 39 38 37 36 35 32 28 27 26 27 29 31 34 36 38 39 39 40 40 40 40
4 3 2 4 6 5 6 6 6 5 2 2 3 6 10 15 7 2 6 3 3 3 7 6 4 6 5 6 7 3 4 6 10 20 32 35 34 33 31 32 35 35 34 35 34 35 37 38 38 39 40 41 42 44 44 45 45 45 44 42 39 37 35 34 35 36 36 37 36 36 35 32 28 26 25 26 27 29 32 34 36 36 37 37 38 38
1 2 3 4 5 6 7 6 5 5 3 2 3 8 13 12 4 4 7 3 5 11 9 6 7 9 7 8 7 4 8 14 19 28 36 36 33 33 32 33 35 35 34 35 35 36 38 39 39 40 41 41 42 43 44 44 45 45 45 44 41 39 37 36 35 33 34 36 36 37 37 35 31 27 25 25 25 26 29 31 33 34 34 35 36 37
2 2 2 3 3 3 4 4 5 6 3 2 5 13 11 4 2 6 6 6 13 16 10 10 11 11 10 11 11 13 18 22 24 28 32 33 33 33 34 35 35 36 36 36 36 37 39 40 40 41 42 42 42 42 43 44 44 45 45 45 43 41 39 38 37 35 33 33 35 37 37 36 34 30 26 23 23 24 27 29 30 32 32 33 34 35
3 2 3 3 3 2 2 4 6 7 2 4 10 11 5 1 6 12 12 13 16 16 13 14 15 15 15 15 16 19 22 24 26 27 29 31 32 33 34 35 36 37 38 38 39 39 38 40 42 42 42 43 42 42 43 44 45 45 45 45 45 43 42 41 40 38 36 33 33 34 35 36 35 33 29 25 22 22 25 27 29 30 30 31 32 33
3 3 3 3 3 4 5 5 5 4 6 15 14 6 7 15 21 20 17 16 17 17 17 19 20 20 19 17 18 21 23 25 27 28 29 31 32 33 34 34 35 37 38 40 41 41 40 41 44 45 45 44 43 43 43 43 45 46 46 46 45 45 45 44 42 41 39 36 33 32 33 33 33 33 32 29 24 22 23 26 29 30 30 30 32 34
4 5 5 4 5 4 5 6 8 8 17 28 27 21 24 31 30 25 21 20 21 22 21 21 24 24 20 18 20 23 25 27 29 30 31 33 34 35 35 35 36 38 39 41 42 41 41 43 46 48 49 47 45 44 43 43 44 47 48 47 46 46 45 44 43 43 42 39 37 34 32 32 31 32 32 30 27 24 23 25 28 30 31 31 33 34
5 5 3 2 5 5 5 11 15 17 24 33 34 32 30 30 30 29 25 23 26 29 26 23 23 23 21 21 22 23 26 29 30 32 34 34 36 36 36 37 38 39 41 43 43 43 43 45 47 50 52 52 50 47 45 44 43 45 47 48 47 45 43 42 44 44 43 41 39 36 34 33 32 31 31 31 30 28 26 26 27 29 30 32 33 34
6 8 6 4 6 6 6 9 11 15 24 29 28 28 28 30 33 32 29 29 32 32 28 23 21 22 23 24 24 25 27 29 31 33 35 35 36 38 38 40 41 42 43 45 44 44 45 46 48 50 53 55 55 52 49 47 45 45 46 47 47 46 45 44 44 44 44 43 41 38 36 35 34 33 32 32 32 31 30 29 29 30 31 32 33 34
5 7 6 6 7 7 8 11 14 20 26 26 26 28 30 34 36 34 32 32 32 29 26 23 21 23 25 26 26 25 28 31 33 33 33 35 37 39 41 43 44 44 46 46 45 46 47 49 51 52 53 55 55 55 54 51 48 47 46 46 47 48 49 49 47 45 45 45 44 41 39 38 36 34 33 33 33 34 34 33 33 33 34 33 33 33
6 4 5 5 5 6 8 12 17 19 18 22 30 33 31 30 31 29 27 27 27 27 27 25 25 26 27 28 28 27 29 35 36 34 33 36 40 43 45 46 46 47 48 48 47 46 47 50 53 54 55 56 55 55 56 55 53 50 48 48 48 48 50 51 50 48 46 45 45 45 43 41 39 37 36 35 35 36 37 37 36 36 36 35 34 33
6 5 6 4 3 6 9 13 16 12 7 15 28 31 27 24 22 21 21 22 23 25 26 26 29 30 28 28 29 30 32 36 37 36 35 38 43 46 48 48 48 50 51 50 49 49 50 52 53 54 56 57 56 55 55 56 56 54 51 51 51 49 49 51 51 50 48 45 45 46 45 43 42 40 38 37 37 38 39 39 38 38 37 38 37 36
12 12 10 7 7 11 16 20 19 12 9 19 29 30 26 23 20 19 20 21 22 24 25 26 28 29 30 32 33 32 32 35 38 38 38 41 45 48 48 48 48 50 53 53 52 52 53 54 54 55 57 58 58 56 55 55 56 57 55 53 52 50 49 48 48 49 49 46 44 44 43 44 43 42 40 39 39 39 40 40 40 40 39 39 38 38
Wind_Direction
175 173 158 193 212 216 216 206 215 229 239 251 240 238 247 254 261 254 262 265 247 269 265 254 266 270 266 262 258 267 269 269 272 271 265 264 266 268 269 269 271 272 276 283 286 284 282 280 279 277 273 272 271 270 267 262 260 259 258 255 251 246 245 244 243 240 239 238 236 235 235 234 233 232 232 231 230 229 228 229 230 230 230 230 230 230
175 200 211 212 217 217 220 219 225 242 265 261 244 260 259 248 263 257 259 271 250 236 260 256 272 274 268 267 258 262 264 257 260 267 268 265 263 266 268 270 272 274 277 282 284 284 282 280 279 277 274 272 272 273 271 267 264 260 256 253 250 246 244 245 245 242 240 240 240 240 241 240 235 233 233 232 231 228 227 227 227 228 229 229 230 230
214 230 230 226 231 233 243 237 223 238 242 244 241 262 263 248 273 267 249 264 251 222 268 268 269 271 271 270 255 249 253 250 253 257 264 267 265 265 266 268 271 274 277 279 282 284 283 281 281 278 275 274 273 274 273 270 266 260 255 251 248 245 245 245 245 243 241 241 241 241 242 240 236 233 234 233 232 230 228 227 227 228 228 228 229 230
234 240 231 230 234 237 259 253 219 255 244 224 223 244 262 249 266 264 243 265 266 225 269 282 276 273 266 266 256 243 248 252 255 256 260 264 264 262 262 264 268 271 276 279 282 285 284 282 281 279 277 276 274 273 271 268 264 259 254 250 246 245 244 244 244 242 240 238 237 237 236 235 233 232 233 232 232 231 229 228 227 228 228 228 229 229
244 245 227 223 221 214 238 244 223 260 262 232 217 223 254 246 240 250 266 319 317 278 279 291 291 282 230 239 250 243 247 250 253 254 260 262 260 261 264 266 267 270 273 277 281 286 286 282 280 279 277 276 275 273 271 269 267 262 257 252 247 244 243 243 242 240 236 233 232 232 230 228 227 228 229 230 230 229 228 228 227 227 228 228 229 229
257 254 223 191 212 209 220 239 209 211 253 258 221 208 239 248 248 257 283 334 340 301 296 322 303 296 195 196 234 249 252 250 248 249 252 255 259 264 270 271 270 270 273 276 281 287 289 284 281 280 278 277 276 275 275 273 270 264 258 252 247 244 243 242 241 238 235 232 231 230 229 227 226 226 228 230 231 231 229 229 228 227 227 228 228 229
255 242 218 200 212 197 201 252 220 197 239 275 228 204 229 245 254 260 272 305 280 264 297 76 265 286 279 169 213 241 251 254 249 242 245 253 263 270 270 270 270 272 274 277 281 287 290 287 284 284 284 283 283 283 280 273 266 259 254 250 247 244 243 242 239 237 234 232 231 231 232 233 232 232 234 235 235 235 234 232 230 228 228 228 228 229
207 230 231 223 207 163 184 249 219 180 208 268 237 201 214 230 242 243 231 231 239 275 290 161 160 271 285 228 194 221 239 258 259 253 256 262 266 267 267 269 272 275 278 281 284 285 286 287 287 289 290 289 288 287 279 269 261 255 250 247 246 243 242 241 239 237 235 233 232 232 233 235 236 238 240 240 238 238 235 233 232 230 229 228 228 229
164 195 220 198 173 177 208 232 185 160 198 253 160 158 188 205 215 179 175 211 260 342 286 215 145 255 284 265 191 219 236 254 264 260 263 264 263 266 270 275 279 281 283 283 283 283 284 286 289 293 295 292 287 283 275 266 258 253 248 245 243 241 240 240 239 237 236 235 234 234 234 235 236 238 239 239 238 239 237 234 233 231 230 230 229 229
203 194 185 161 165 210 222 227 167 166 203 234 118 104 69 72 83 115 182 193 62 313 263 195 157 214 283 280 126 54 246 243 260 261 260 264 268 273 276 282 288 288 285 281 282 283 284 287 292 296 295 289 282 278 270 260 252 246 243 241 241 239 239 238 238 236 235 234 233 233 234 235 236 235 235 235 236 237 238 237 235 233 231 230 230 230
247 179 124 176 206 211 194 177 166 181 208 323 76 4 13 17 24 58 258 92 77 282 251 180 177 183 283 288 143 177 234 228 245 261 276 278 280 283 284 287 293 294 291 286 284 285 287 293 300 300 294 284 277 272 260 249 243 239 236 237 238 238 238 237 236 235 234 233 233 233 234 235 236 235 235 235 235 236 237 237 236 235 233 232 232 232
258 206 210 222 213 194 148 120 339 191 195 14 32 7 0 326 355 28 351 56 152 264 250 183 180 172 238 266 58 278 272 245 230 252 290 293 285 286 286 287 293 298 297 295 292 292 296 306 313 307 295 282 272 266 255 244 238 235 232 233 235 236 236 236 235 234 233 234 234 234 234 235 235 235 236 236 237 237 237 237 237 235 235 234 233 233
277 223 234 249 204 189 167 184 318 357 89 124 125 82 353 316 341 356 310 82 203 256 254 182 174 184 242 259 319 289 274 260 236 235 263 275 281 287 290 293 298 300 299 301 302 301 301 310 318 310 296 280 269 262 254 244 239 237 235 233 234 235 236 236 235 235 234 234 235 235 234 235 236 236 237 238 238 239 239 239 238 237 235 234 233 233
290 269 212 88 240 197 166 158 232 264 164 156 155 159 159 194 273 272 263 270 260 268 286 180 171 246 272 274 250 248 262 272 269 265 268 277 290 295 299 305 311 312 309 310 310 306 304 308 312 306 295 281 271 266 257 249 245 244 242 240 238 238 237 237 236 236 235 235 236 236 237 237 237 238 239 239 240 241 242 242 242 241 240 238 237 236
253 293 211 176 234 182 176 199 201 162 154 185 163 143 160 180 222 242 236 257 269 280 308 246 182 224 267 278 242 240 274 296 296 295 294 297 299 304 324 346 353 347 337 330 321 313 309 308 305 301 295 282 271 267 263 258 254 253 251 248 244 242 240 239 238 238 238 237 237 237 238 238 239 240 241 242 243 244 244 244 244 244 243 243 242 241
205 264 241 204 140 152 178 225 194 116 43 241 131 110 204 199 195 236 245 243 258 290 289 239 218 224 243 281 278 268 283 289 293 310 321 318 307 0 18 22 19 9 1 354 345 335 325 317 310 303 295 283 274 271 270 268 264 264 262 257 252 248 246 244 242 242 241 239 239 239 240 240 240 241 241 242 243 243 243 244 243 243 243 244 245 244
225 251 230 102 80 180 199 230 185 164 183 267 113 174 232 172 155 229 264 247 244 261 248 237 258 272 286 289 289 301 309 303 321 334 283 274 304 12 20 18 19 16 11 7 3 358 352 345 336 324 308 293 285 282 282 280 279 279 276 270 264 256 250 248 247 245 243 241 240 241 241 241 241 241 240 240 240 241 242 242 242 242 242 243 244 244
247 269 258 252 268 243 224 244 256 228 176 137 202 220 227 60 132 185 251 249 237 246 240 232 252 272 293 282 292 343 329 299 282 268 258 275 321 359 1 356 2 8 7 7 9 10 11 10 4 355 341 323 310 300 291 287 285 283 279 275 269 263 258 255 252 249 246 244 244 243 243 242 241 240 240 239 240 241 241 241 241 240 239 239 241 242
250 281 273 263 264 267 52 1 293 274 211 189 254 252 137 255 254 212 196 208 233 248 249 222 236 253 256 256 271 275 269 268 262 261 286 296 315 332 338 342 347 350 349 348 355 5 14 14 6 1 353 341 334 323 310 297 285 277 274 271 268 266 263 260 258 254 250 248 247 247 246 245 245 243 242 241 240 241 240 239 238 237 237 237 239 241
259 270 275 284 286 343 44 261 255 267 258 230 312 317 233 230 236 232 211 180 232 252 256 235 227 230 228 243 264 259 246 246 243 248 289 293 296 308 321 332 336 341 344 341 341 346 352 353 352 355 353 347 344 336 326 311 293 280 273 270 268 267 262 258 256 253 251 250 250 251 250 249 248 246 245 244 243 242 240 239 239 238 237 238 239 240
7 271 258 282 312 333 277 218 219 235 237 193 227 246 246 237 251 268 244 200 240 250 253 250 237 225 218 242 258 256 245 232 224 232 279 288 301 309 316 324 327 330 331 327 327 328 325 323 326 330 331 334 336 332 325 315 302 288 276 269 267 267 264 263 262 258 256 255 253 253 251 250 249 248 247 247 245 244 243 242 241 240 239 239 239 240
172 248 237 234 255 256 250 230 195 197 197 181 189 210 228 231 255 279 260 232 234 245 248 255 254 239 204 242 258 256 237 218 229 254 279 291 304 309 311 312 311 310 311 311 309 306 307 307 308 309 310 313 319 321 318 310 300 291 283 273 264 262 263 266 268 268 267 264 262 260 256 253 252 251 249 248 246 245 243 242 241 240 241 241 240 240
189 180 217 230 228 242 257 256 219 201 209 229 220 212 233 231 214 240 250 244 241 249 252 255 261 246 179 223 257 266 250 239 254 267 279 290 295 298 301 301 302 303 301 299 296 294 297 300 303 303 300 299 305 317 320 311 298 290 287 280 266 259 259 262 265 268 267 266 268 268 264 259 255 253 251 249 248 246 244 243 241 241 241 242 241 241
207 155 230 254 257 263 273 279 269 240 223 272 259 232 229 233 232 237 245 252 254 255 260 261 258 246 186 226 260 282 285 278 273 270 274 284 288 288 289 292 296 298 297 297 298 302 307 315 324 325 316 307 306 317 322 313 296 284 286 290 283 273 268 267 269 269 264 263 267 269 267 264 260 255 253 251 250 248 247 246 244 243 242 243 244 243
256 209 217 259 278 286 279 284 283 263 215 222 247 240 234 235 243 254 260 267 265 247 247 258 258 248 250 270 278 284 285 287 284 282 283 287 287 286 287 294 303 312 320 327 332 333 332 334 336 334 330 326 320 321 321 311 294 284 285 290 290 287 284 282 282 279 272 265 262 262 264 266 263 259 256 255 253 251 250 248 247 246 245 245 245 245
281 244 222 256 264 262 265 262 269 274 254 250 251 242 243 240 240 250 259 257 256 242 238 249 256 251 256 279 284 283 285 288 287 288 290 292 299 313 337 2 9 11 10 6 2 359 353 347 343 339 337 333 326 323 321 310 298 292 291 290 288 286 285 284 284 283 278 270 262 259 263 266 265 262 261 260 258 254 251 249 248 247 246 246 246 246
208 252 230 245 254 256 266 269 273 286 284 283 281 259 255 252 245 248 249 248 258 259 247 245 254 261 263 270 274 272 274 280 286 297 312 331 356 15 28 33 31 26 21 16 14 13 9 4 1 357 352 343 333 326 321 315 304 299 298 297 294 292 290 287 285 283 281 276 267 262 266 269 269 268 266 264 261 257 252 249 248 247 246 246 246 246
184 260 246 250 255 254 264 272 274 279 275 272 277 275 272 270 262 258 256 256 267 273 261 254 259 266 262 259 268 276 286 301 320 344 5 21 28 30 30 27 25 21 16 13 11 8 6 4 3 1 358 354 347 337 329 323 316 311 308 302 297 296 296 295 294 290 287 282 271 264 267 271 272 272 269 264 260 256 253 250 248 247 246 246 246 246
178 259 259 256 261 259 264 272 271 273 273 271 273 274 273 273 270 266 263 262 264 264 265 271 270 269 275 291 310 336 353 359 17 31 34 34 28 24 24 24 22 17 12 9 7 4 3 1 359 359 357 356 353 347 340 333 326 323 318 309 302 299 296 297 298 295 292 287 278 272 272 273 273 273 269 262 257 254 253 251 250 248 247 246 246 246
196 254 267 263 276 278 273 275 273 271 271 271 268 266 266 267 265 265 266 268 270 268 269 274 271 270 297 352 359 11 11 9 26 33 32 29 23 21 22 20 17 15 10 6 3 0 359 357 356 356 355 355 354 351 348 342 336 332 325 317 310 303 298 296 293 289 288 287 284 281 279 275 273 271 266 261 257 255 253 251 249 248 247 247 247 246
241 306 325 312 299 286 278 277 274 269 268 272 273 270 267 266 265 267 270 272 273 272 274 276 272 275 344 2 352 7 8 9 24 30 28 25 20 17 16 13 11 8 5 2 359 356 355 354 353 352 351 351 351 350 349 346 342 338 333 327 320 312 303 295 288 285 284 285 285 285 282 277 272 269 266 261 257 255 252 250 248 247 246 246 245 244
308 310 325 314 288 278 281 280 281 285 285 280 277 274 269 266 265 265 264 268 273 278 287 293 291 315 355 347 345 4 9 7 12 23 24 20 16 14 10 5 2 359 357 356 354 351 350 349 348 347 347 346 346 347 347 346 344 341 339 337 333 329 320 304 291 286 285 286 288 287 284 280 274 269 266 261 256 253 251 248 246 245 244 244 244 243
246 269 289 284 280 285 283 282 291 302 294 279 276 280 277 273 276 273 279 318 329 317 306 331 26 358 337 343 350 360 7 359 350 12 28 20 13 8 2 357 354 351 349 348 347 346 345 344 343 342 342 341 341 341 343 344 343 341 341 342 341 343 341 329 311 295 290 292 292 288 284 281 275 269 266 261 255 252 249 245 244 243 242 242 242 241
244 252 258 259 269 279 283 293 304 291 276 270 301 20 25 52 38 24 14 8 9 25 64 87 66 5 345 357 355 349 350 341 328 330 13 16 9 1 353 349 346 344 343 341 342 342 341 340 339 338 338 338 337 337 339 341 341 339 339 342 344 346 349 347 339 326 314 307 299 291 286 283 276 271 266 261 256 252 248 245 243 242 241 241 239 239
257 256 255 251 254 269 283 296 285 268 262 222 81 55 86 112 96 96 90 38 30 51 62 55 36 12 353 347 347 338 329 329 323 310 329 2 3 354 346 342 339 338 337 336 337 337 338 338 336 335 335 335 334 335 336 337 338 337 337 340 343 346 348 349 347 345 337 326 314 303 295 288 281 273 267 261 257 252 249 246 244 243 242 240 239 239
244 256 258 245 253 265 261 249 255 263 248 119 72 25 25 88 84 97 106 66 45 57 65 41 6 358 344 334 338 335 327 324 319 299 309 348 351 347 339 335 332 331 331 332 333 333 334 334 333 333 333 333 332 333 334 335 336 335 336 338 340 343 346 347 348 348 345 338 329 319 309 298 287 278 271 265 259 254 250 248 246 244 242 240 239 238
224 241 255 249 246 247 245 244 255 270 263 163 28 357 359 269 311 314 276 104 99 96 86 68 338 333 335 330 332 334 333 330 319 275 314 339 339 337 332 328 326 327 327 328 330 330 331 332 331 332 332 331 331 332 333 334 334 333 334 337 338 339 341 343 347 349 349 345 337 328 319 310 298 287 278 270 263 258 254 250 247 245 242 240 238 237
201 216 237 261 256 255 273 272 268 273 263 181 257 273 253 255 258 237 230 202 132 136 175 153 277 300 306 320 329 336 339 336 323 300 323 331 331 329 327 324 324 325 326 327 329 329 330 330 330 331 331 330 331 332 333 333 334 333 333 334 336 337 337 338 342 346 349 350 346 337 328 319 309 298 286 276 269 263 258 253 248 245 242 240 239 238
118 227 208 252 267 280 284 278 276 278 249 157 225 238 256 276 272 213 223 218 134 176 202 172 215 264 259 300 321 341 346 336 318 312 319 324 325 324 323 322 323 325 326 327 328 327 327 329 328 328 329 329 329 330 331 332 332 332 332 332 333 335 335 334 335 338 343 347 348 345 340 332 321 308 295 284 275 268 261 255 250 246 243 241 240 238
352 312 259 252 258 264 269 266 272 278 241 148 216 247 281 292 286 232 267 255 129 232 229 191 231 257 256 296 313 348 343 312 297 305 314 318 319 320 320 319 321 324 325 326 326 326 325 326 326 326 326 327 327 327 328 329 329 330 330 330 329 330 331 331 329 330 333 337 341 344 345 342 333 319 306 294 283 272 264 257 252 248 244 241 239 237
311 271 257 241 239 248 258 259 265 265 247 204 245 279 304 316 311 256 271 295 333 305 272 220 250 267 266 291 305 291 289 293 294 302 310 314 314 314 315 316 318 321 322 323 325 325 324 323 323 323 323 324 324 324 325 325 325 325 326 326 326 325 325 324 323 323 323 325 330 334 338 341 338 329 317 304 290 277 268 261 255 251 247 243 239 236
209 253 262 219 213 231 236 247 279 276 223 120 317 309 322 351 254 267 282 304 306 297 267 235 257 268 266 275 282 281 289 297 298 301 307 310 309 309 312 315 317 319 320 321 322 323 322 321 321 321 321 321 322 322 322 322 320 320 321 321 321 322 320 317 316 317 317 317 318 320 324 329 331 330 325 314 300 286 274 265 258 253 248 243 240 238
216 258 271 222 216 247 230 245 268 261 229 25 349 336 359 114 269 289 299 299 293 282 261 251 258 265 268 273 280 286 292 297 297 299 303 305 304 306 309 313 315 316 318 319 319 320 319 317 319 321 321 321 321 320 319 319 317 317 316 315 317 318 316 313 311 310 310 310 311 312 314 316 319 322 322 319 310 294 280 269 261 254 249 244 242 239
236 224 236 228 233 239 231 239 232 214 295 316 317 302 273 280 284 287 289 288 285 278 267 260 261 267 272 278 288 294 295 295 297 300 302 301 301 303 306 309 311 313 314 315 315 316 315 314 317 320 321 322 322 320 319 318 316 314 312 312 313 312 311 310 308 305 304 304 304 305 306 307 308 310 313 314 311 300 285 273 264 257 251 247 242 238
225 199 203 224 239 213 197 241 268 284 292 292 288 276 276 283 286 286 283 278 278 279 273 263 264 270 277 285 291 293 293 294 298 300 300 299 300 301 302 305 308 309 311 312 313 312 312 313 315 318 319 321 322 322 320 318 315 312 309 309 310 310 309 307 304 302 300 299 299 299 298 299 299 299 302 303 303 298 286 274 265 258 252 246 242 238
242 222 181 191 251 257 248 254 266 276 274 272 272 273 275 280 285 288 285 277 278 282 276 263 263 273 283 289 288 285 288 292 295 297 298 298 298 299 300 302 304 307 309 310 310 310 309 311 314 316 317 318 319 320 320 318 315 312 308 307 307 307 305 302 300 299 297 295 295 294 291 291 290 291 292 292 292 292 284 273 265 258 253 247 242 239
255 230 214 229 251 260 264 250 242 249 255 260 267 272 275 279 282 283 282 280 282 284 276 264 266 278 285 287 284 281 285 289 291 293 295 296 296 296 297 300 303 306 308 308 308 308 308 309 311 312 313 315 317 318 317 316 314 312 308 306 305 304 301 297 296 295 293 291 291 289 286 284 283 284 284 283 283 283 279 272 264 256 252 248 243 240
248 215 206 232 238 230 250 263 256 253 259 267 272 272 273 277 280 281 281 281 280 277 269 264 273 284 286 287 285 284 287 291 291 292 294 295 295 295 297 300 302 304 306 308 308 308 308 308 309 309 309 312 314 315 313 313 312 311 307 304 301 300 298 296 295 292 289 287 286 284 281 280 278 277 277 277 276 276 275 271 266 259 256 254 250 246
227 208 194 208 234 248 261 266 264 265 271 275 275 275 276 278 281 283 283 279 272 266 263 267 279 287 286 286 289 289 292 296 298 297 295 296 298 299 299 301 302 303 305 307 307 306 305 306 306 306 306 308 310 310 310 310 309 308 306 301 298 296 295 295 294 292 288 284 282 280 278 275 274 273 272 272 272 271 270 270 268 264 261 258 255 252
207 235 233 211 234 258 253 251 255 262 273 271 274 281 286 286 286 287 283 274 263 258 263 273 282 284 284 286 292 294 294 298 301 301 298 297 299 300 301 302 303 304 306 306 305 304 303 303 303 303 304 306 307 306 305 306 306 305 303 299 295 294 293 292 293 292 289 285 281 279 277 273 270 268 268 268 267 266 266 265 263 262 260 258 255 251
217 232 236 230 238 246 251 256 256 251 255 268 275 281 285 289 291 287 279 272 265 264 273 279 282 285 289 293 296 296 295 298 301 301 298 297 299 300 301 301 302 303 304 305 303 302 303 303 302 301 302 303 304 303 302 301 301 302 300 297 294 293 292 291 292 290 288 286 283 280 278 275 270 266 265 266 265 264 263 261 260 258 256 255 254 251